Regional Weather Roundup
Issued by NWS Green Bay, WI

Home | Current Version | Previous Version | Text Only | Print | Product List | Glossary On
Versions: 1 2 3 4 5 6 7 8 9 10 11 12 13 14 15 16 17 18 19 20 21 22 23 24 25 26 27 28 29 30 31 32 33 34 35 36 37 38 39 40 41 42 43 44 45 46 47 48 49 50
000
ASUS43 KGRB 271811
RWRGRB

NORTH-CENTRAL AND NORTHEAST WISCONSIN REGIONAL WEATHER ROUNDUP
NATIONAL WEATHER SERVICE GREEN BAY WI
100 PM CDT TUE JUN 27 2017

WIZ005-009-010>012-018-019-271900-
NORTH CENTRAL WISCONSIN

CITY           SKY/WX    TMP DP  RH WIND       PRES   REMARKS
IRONWOOD       PTSUNNY   70  48  45 SW12      29.99F
MANITOWISH WTR PTSUNNY   69  46  44 W10       30.01F
ARBOR VITAE    MOSUNNY   72  49  43 NW6       30.01F
EAGLE RIVER    MOSUNNY   67  44  42 NW13      30.01F
LAND O LAKES   MOSUNNY   69  42  37 CALM      30.02S
RHINELANDER    MOSUNNY   70  49  47 MISG      30.03F
PHILLIPS       SUNNY     68  45  43 SW6       30.02F
ANTIGO         PTSUNNY   68  48  48 NW8       30.04S
TOMAHAWK       NOT AVBL
MERRILL        PTSUNNY   69  46  43 NW13G18   30.04F
$$

WIZ013-073-271900-
NORTHEAST WISCONSIN

CITY           SKY/WX    TMP DP  RH WIND       PRES   REMARKS
IRON MOUNTAIN  MOSUNNY   71  45  39 N8        29.99F
MARINETTE      PTSUNNY   69  52  54 SW6       30.02
OCONTO         CLOUDY    70  51  51 W7        30.01S
$$

WIZ017-030-035>037-045-271900-
CENTRAL WISCONSIN

CITY           SKY/WX    TMP DP  RH WIND       PRES   REMARKS
MEDFORD        MOSUNNY   67  46  46 W7        30.05S
WAUSAU         MOSUNNY   70  46  42 NW12      30.03F
MOSINEE        PTSUNNY   70  46  43 W10       30.06F
MARSHFIELD     SUNNY     70  46  42 W9        30.05F
WISC RAPIDS    MOSUNNY   72  46  39 W7        30.06F
STEVENS POINT  SUNNY     69  44  39 W10       30.05F
WAUPACA        MOSUNNY   75  44  33 W7        30.04F
SHAWANO        PTSUNNY   73  47  38 W8        30.02F
CLINTONVILLE   CLOUDY    72  43  35 W10G16    30.03S
WAUTOMA        MOSUNNY   73  46  38 W5        30.06F
$$

WIZ038-039-048-051-271900-
FOX VALLEY

CITY           SKY/WX    TMP DP  RH WIND       PRES   REMARKS
NWS GREEN BAY  PTSUNNY   73  54  51 W10G16    30.03F
APPLETON       NOT AVBL
OSHKOSH        MOSUNNY   72  48  42 W6        30.04F
FOND DU LAC    MOSUNNY   73  46  38 NW14G24   30.06F
$$

WIZ022-050-052-271900-
EAST CENTRAL WISCONSIN

CITY           SKY/WX    TMP DP  RH WIND       PRES   REMARKS
EPHRAIM        FAIR      67  50  53 W6        30.01S
WASHINGTON ISL MOCLDY    65  51  60 W5        30.01S
STURGEON BAY     N/A     69  50  50 W8        30.03F
MANITOWOC      PTSUNNY   71  49  45 SW9G18    30.04F
SHEBOYGAN      MOSUNNY   73  50  44 W14G23    30.05F
$$

LMZ563-521-522-541>543-271900-
LAKESHORE

STATION/POSITION TIME  TEMP    WIND        PRES    VSBY  WAVE
                       AIR SEA DIR/SP/G                  HT/PER
                 (UTC) (F)     (DEG/KT/KT) (MB)    (MI)  (FT/S)
SHEBOYGAN LKSHOR 1800   69     250/  8/ 10 1017.4F
KEWAUNEE LKSHORE 1742   66     200/  3/  7 1016.5F
NORTHPORT PIER   1740   63     130/ 10/ 11 1016.3S
N MID LAKE BUOY  1750   58 58  230/  6/  6 1017.3S         1
S GREEN BAY BUOY 1800   66     190/ 10/ 12 1016.2
SISTER BAY LKSHO 1723   73        CALM       N/A
CHAMBERS ISLAND  1740   66     160/  5/ 11 1016.3S
MENOMINEE LKSHOR 1736          160/ 12/ 15 1015.3F
$$




USA.gov is the U.S. government's official web portal to all federal, state and local government web resources and services.